Weather History for Hebron, NE

Change the Weather History Date:

Saturday, June 1, 2013

  Actual Average Record
Temperature  
Mean Temperature 61 °F -  
Max Temperature 69 °F 75 °F 98 °F (1955)
Min Temperature 54 °F 54 °F 39 °F (1956)
Degree Days  
Heating Degree Days 4    
Growing Degree Days 11 (Base 50)    
Moisture  
Dew Point 47 °F    
Average Humidity 61    
Maximum Humidity 73    
Minimum Humidity 48    
Precipitation  
Precipitation 0.00 in - - ()
Sea Level Pressure  
Sea Level Pressure 29.91 in    
Wind  
Wind Speed 12 mph (NW)    
Max Wind Speed 25 mph    
Max Gust Speed 32 mph    
Visibility 10 miles    
Events      
Averages and records for this station are not official NWS values.
T = Trace of Precipitation, MM = Missing Value Source: NWS Daily Summary

Daily Weather History Graph

Daily Weather History Graph

Search for Another Location

Airport:

Trip Planner

Search our weather history database for the weather conditions in past years. The results will help you decide how hot, cold, wet, or windy it might be!

Date:

Astronomy

Jun. 01, 2013 Rise Set
Actual Time 6:03 AM CDT 8:53 PM CDT
Civil Twilight 5:30 AM CDT 9:26 PM CDT
Nautical Twilight 4:50 AM CDT 10:06 PM CDT
Astronomical Twilight 4:03 AM CDT 10:53 PM CDT
Moon 1:59 AM CDT (6/1) 2:24 PM CDT (6/1)
Length of Visible Light 15h 55m
Length of Day
14h 50m
Last Quarter, 40% of the Moon is Illuminated
Jun 1
Last Quarter
Jun 8
New
Jun 16
First Quarter
Jun 23
Full
Jun 29
Last Quarter

Hourly Weather History & Observations

Time (CDT) Temp. Dew Point Humidity Pressure Visibility Wind Dir Wind Speed Gust Speed Precip Events Conditions
12:15 AM 62.2 °F 44.6 °F 52% 29.82 in 10.0 mi West 9.2 mph - N/A   Clear
12:35 AM 61.3 °F 44.8 °F 55% 29.81 in 10.0 mi West 6.9 mph - N/A   Clear
12:55 AM 59.7 °F 45.7 °F 60% 29.81 in 10.0 mi West 8.1 mph - N/A   Clear
1:15 AM 59.2 °F 45.7 °F 61% 29.80 in 10.0 mi WNW 9.2 mph - N/A   Clear
1:35 AM 59.0 °F 45.5 °F 61% 29.79 in 10.0 mi West 8.1 mph - N/A   Clear
1:55 AM 58.3 °F 45.5 °F 62% 29.79 in 10.0 mi WNW 10.4 mph - N/A   Clear
2:15 AM 58.6 °F 45.5 °F 62% 29.78 in 10.0 mi West 8.1 mph - N/A   Clear
2:35 AM 58.3 °F 45.5 °F 62% 29.79 in 10.0 mi West 8.1 mph - N/A   Clear
2:55 AM 58.1 °F 45.5 °F 63% 29.78 in 10.0 mi West 11.5 mph - N/A   Clear
3:15 AM 57.9 °F 45.5 °F 63% 29.79 in 10.0 mi West 11.5 mph - N/A   Clear
3:35 AM 56.7 °F 45.9 °F 67% 29.78 in 10.0 mi West 9.2 mph - N/A   Clear
3:55 AM 57.4 °F 45.5 °F 65% 29.77 in 10.0 mi West 11.5 mph - N/A   Clear
4:15 AM 56.3 °F 45.9 °F 68% 29.78 in 10.0 mi WSW 6.9 mph - N/A   Clear
4:35 AM 54.9 °F 46.4 °F 73% 29.78 in 10.0 mi West 8.1 mph - N/A   Clear
4:55 AM 55.4 °F 46.2 °F 71% 29.79 in 10.0 mi West 8.1 mph - N/A   Clear
5:15 AM 55.6 °F 46.6 °F 72% 29.78 in 10.0 mi West 9.2 mph - N/A   Clear
5:35 AM 56.5 °F 46.2 °F 68% 29.78 in 10.0 mi West 11.5 mph 16.1 mph N/A   Clear
5:55 AM 56.5 °F 46.4 °F 69% 29.78 in 10.0 mi West 11.5 mph 18.4 mph N/A   Clear
6:15 AM 56.3 °F 46.8 °F 70% 29.79 in 10.0 mi West 9.2 mph - N/A   Clear
6:35 AM 56.3 °F 47.1 °F 71% 29.80 in 10.0 mi West 9.2 mph - N/A   Clear
6:55 AM 57.0 °F 47.5 °F 70% 29.81 in 10.0 mi West 9.2 mph - N/A   Mostly Cloudy
7:15 AM 57.9 °F 47.5 °F 68% 29.81 in 10.0 mi WNW 10.4 mph - N/A   Mostly Cloudy
7:35 AM 58.6 °F 47.8 °F 67% 29.81 in 10.0 mi WNW 13.8 mph 19.6 mph N/A   Overcast
7:55 AM 59.0 °F 48.2 °F 67% 29.82 in 10.0 mi NW 17.3 mph 23.0 mph N/A   Overcast
8:15 AM 59.2 °F 48.7 °F 68% 29.83 in 10.0 mi WNW 12.7 mph 23.0 mph N/A   Overcast
8:35 AM 59.5 °F 49.8 °F 70% 29.83 in 10.0 mi NW 13.8 mph 23.0 mph N/A   Overcast
8:55 AM 60.3 °F 50.9 °F 71% 29.84 in 10.0 mi NW 16.1 mph 24.2 mph N/A   Overcast
9:15 AM 60.8 °F 50.9 °F 70% 29.84 in 10.0 mi NW 16.1 mph 26.5 mph N/A   Overcast
9:35 AM 61.0 °F 50.9 °F 69% 29.85 in 10.0 mi NW 17.3 mph 27.6 mph N/A   Overcast
9:55 AM 62.4 °F 50.7 °F 66% 29.86 in 10.0 mi NNW 19.6 mph 26.5 mph N/A   Overcast
10:15 AM 62.6 °F 49.8 °F 63% 29.87 in 10.0 mi NNW 21.9 mph 31.1 mph N/A   Overcast
10:35 AM 64.2 °F 50.2 °F 60% 29.87 in 10.0 mi NW 19.6 mph 29.9 mph N/A   Overcast
10:55 AM 62.4 °F 50.5 °F 65% 29.88 in 10.0 mi NW 18.4 mph 26.5 mph N/A   Overcast
11:15 AM 63.5 °F 49.8 °F 61% 29.89 in 10.0 mi NW 21.9 mph 31.1 mph N/A   Overcast
11:35 AM 63.3 °F 49.5 °F 61% 29.89 in 10.0 mi NW 21.9 mph 28.8 mph N/A   Overcast
11:55 AM 65.7 °F 49.6 °F 56% 29.90 in 10.0 mi NW 19.6 mph 29.9 mph N/A   Mostly Cloudy
12:15 PM 64.4 °F 49.8 °F 59% 29.91 in 10.0 mi NNW 17.3 mph 27.6 mph N/A   Overcast
12:35 PM 64.9 °F 49.3 °F 57% 29.92 in 10.0 mi NNW 20.7 mph 27.6 mph N/A   Overcast
12:55 PM 65.5 °F 49.3 °F 56% 29.92 in 10.0 mi NNW 20.7 mph 28.8 mph N/A   Overcast
1:15 PM 65.5 °F 48.7 °F 55% 29.93 in 10.0 mi NW 18.4 mph 25.3 mph N/A   Overcast
1:35 PM 66.6 °F 48.7 °F 53% 29.93 in 10.0 mi NW 17.3 mph 24.2 mph N/A   Overcast
1:55 PM 67.5 °F 48.9 °F 51% 29.92 in 10.0 mi NNW 24.2 mph 32.2 mph N/A   Mostly Cloudy
2:15 PM 68.2 °F 49.3 °F 51% 29.92 in 10.0 mi NNW 25.3 mph 31.1 mph N/A   Scattered Clouds
2:35 PM 68.0 °F 49.5 °F 51% 29.93 in 10.0 mi NNW 19.6 mph 31.1 mph N/A   Clear
2:55 PM 68.2 °F 49.5 °F 51% 29.93 in 10.0 mi NNW 18.4 mph 27.6 mph N/A   Scattered Clouds
3:15 PM 68.2 °F 48.7 °F 50% 29.94 in 10.0 mi NNW 24.2 mph 29.9 mph N/A   Clear
3:35 PM 68.4 °F 48.7 °F 49% 29.95 in 10.0 mi NW 18.4 mph 29.9 mph N/A   Clear
3:55 PM 68.9 °F 48.4 °F 48% 29.95 in 10.0 mi NNW 17.3 mph 24.2 mph N/A   Scattered Clouds
4:15 PM 68.7 °F 48.2 °F 48% 29.95 in 10.0 mi NW 17.3 mph 24.2 mph N/A   Mostly Cloudy
4:35 PM 67.3 °F 48.4 °F 51% 29.96 in 10.0 mi NNW 16.1 mph 21.9 mph N/A   Overcast
4:55 PM 66.4 °F 48.2 °F 52% 29.97 in 10.0 mi NW 17.3 mph 23.0 mph N/A   Overcast
5:15 PM 65.5 °F 47.5 °F 52% 29.98 in 10.0 mi NW 16.1 mph 25.3 mph N/A   Overcast
5:35 PM 64.9 °F 47.7 °F 54% 29.99 in 10.0 mi NW 13.8 mph 28.8 mph N/A   Overcast
5:55 PM 64.0 °F 47.3 °F 54% 30.00 in 10.0 mi NW 13.8 mph 24.2 mph N/A   Overcast
6:15 PM 63.5 °F 47.3 °F 56% 30.01 in 10.0 mi NW 15.0 mph 21.9 mph N/A   Overcast
6:35 PM 63.0 °F 46.8 °F 55% 30.01 in 10.0 mi NW 15.0 mph 25.3 mph N/A   Overcast
6:55 PM 61.9 °F 47.1 °F 58% 30.02 in 10.0 mi NNW 20.7 mph 25.3 mph N/A   Overcast
7:15 PM 60.8 °F 46.0 °F 58% 30.02 in 10.0 mi NNW 19.6 mph 25.3 mph N/A   Overcast
7:35 PM 60.6 °F 46.4 °F 59% 30.03 in 10.0 mi NNW 13.8 mph 23.0 mph N/A   Overcast
7:55 PM 60.1 °F 45.9 °F 59% 30.03 in 10.0 mi NNW 16.1 mph 24.2 mph N/A   Overcast
8:15 PM 59.9 °F 45.9 °F 60% 30.04 in 10.0 mi NNW 8.1 mph 18.4 mph N/A   Overcast
8:35 PM 59.9 °F 46.0 °F 60% 30.04 in 10.0 mi North 10.4 mph - N/A   Overcast
8:55 PM 59.9 °F 46.4 °F 61% 30.05 in 10.0 mi NNW 8.1 mph - N/A   Overcast
9:15 PM 59.9 °F 46.6 °F 61% 30.05 in 10.0 mi NNW 11.5 mph - N/A   Overcast
9:35 PM 59.9 °F 46.9 °F 62% 30.06 in 10.0 mi North 9.2 mph 18.4 mph N/A   Overcast
9:55 PM 59.5 °F 47.3 °F 64% 30.07 in 10.0 mi North 10.4 mph 16.1 mph N/A   Overcast
10:15 PM 59.4 °F 47.3 °F 64% 30.07 in 10.0 mi North 11.5 mph 17.3 mph N/A   Overcast
10:35 PM 59.2 °F 46.6 °F 63% 30.08 in 10.0 mi NNW 15.0 mph 19.6 mph N/A   Overcast
10:55 PM 58.8 °F 45.3 °F 61% 30.08 in 10.0 mi North 17.3 mph 23.0 mph N/A   Overcast
11:15 PM 57.2 °F 45.0 °F 64% 30.09 in 10.0 mi NNW 10.4 mph - N/A   Overcast
11:35 PM 56.3 °F 45.5 °F 67% 30.09 in 10.0 mi North 11.5 mph - N/A   Overcast
11:55 PM 55.8 °F 45.3 °F 68% 30.10 in 10.0 mi North 10.4 mph - N/A   Scattered Clouds